TimeEDT,TemperatureF,Dew PointF,Humidity,Sea Level PressureIn,VisibilityMPH,Wind Direction,Wind SpeedMPH,Gust SpeedMPH,PrecipitationIn,Events,Conditions,WindDirDegrees,DateUTC
12:35 AM,30.2,19.4,64,29.81,10.0,West,8.1,-,N/A,,Clear,260,2013-03-23 04:35:00
12:55 AM,30.2,19.4,64,29.81,10.0,West,6.9,-,N/A,,Clear,270,2013-03-23 04:55:00
1:15 AM,30.2,19.4,64,29.80,10.0,West,6.9,-,N/A,,Mostly Cloudy,260,2013-03-23 05:15:00
1:35 AM,30.2,19.4,64,29.81,10.0,West,8.1,-,N/A,,Overcast,280,2013-03-23 05:35:00
1:55 AM,32.0,19.4,60,29.81,10.0,West,6.9,17.3,N/A,,Overcast,270,2013-03-23 05:55:00
2:15 AM,32.0,19.4,60,29.81,10.0,West,8.1,-,N/A,,Overcast,280,2013-03-23 06:15:00
2:35 AM,32.0,19.4,60,29.81,10.0,West,6.9,-,N/A,,Overcast,280,2013-03-23 06:35:00
2:55 AM,32.0,19.4,60,29.80,10.0,West,10.4,16.1,N/A,,Overcast,280,2013-03-23 06:55:00
3:15 AM,32.0,19.4,60,29.80,10.0,West,9.2,-,N/A,,Overcast,280,2013-03-23 07:15:00
3:35 AM,30.2,17.6,60,29.79,10.0,West,8.1,-,N/A,,Overcast,270,2013-03-23 07:35:00
3:55 AM,30.2,19.4,64,29.79,10.0,West,5.8,-,N/A,,Overcast,280,2013-03-23 07:55:00
4:15 AM,30.2,17.6,60,29.79,10.0,West,8.1,-,N/A,,Overcast,260,2013-03-23 08:15:00
4:55 AM,30.2,17.6,60,29.78,10.0,West,5.8,-,N/A,,Scattered Clouds,260,2013-03-23 08:55:00
5:15 AM,30.2,17.6,60,29.79,10.0,West,5.8,-,N/A,,Partly Cloudy,270,2013-03-23 09:15:00
5:35 AM,30.2,17.6,60,29.79,10.0,West,8.1,-,N/A,,Clear,270,2013-03-23 09:35:00
5:45 AM,30.2,17.6,60,29.79,10.0,WNW,5.8,-,N/A,,Clear,290,2013-03-23 09:45:00
6:45 AM,30.2,17.6,60,29.80,10.0,West,8.1,-,N/A,,Scattered Clouds,280,2013-03-23 10:45:00
7:45 AM,30.2,19.4,64,29.80,10.0,West,6.9,-,N/A,,Partly Cloudy,270,2013-03-23 11:45:00
8:55 AM,33.8,19.4,56,29.79,10.0,West,8.1,16.1,N/A,,Partly Cloudy,280,2013-03-23 12:55:00
9:45 AM,35.6,19.4,52,29.79,10.0,WNW,8.1,18.4,N/A,,Scattered Clouds,300,2013-03-23 13:45:00
10:45 AM,35.6,19.4,52,29.78,10.0,West,17.3,23.0,N/A,,Scattered Clouds,280,2013-03-23 14:45:00
11:45 AM,37.4,19.4,48,29.78,10.0,West,12.7,23.0,N/A,,Mostly Cloudy,280,2013-03-23 15:45:00
12:45 PM,39.2,19.4,45,29.78,10.0,WNW,17.3,28.8,N/A,,Mostly Cloudy,300,2013-03-23 16:45:00
1:45 PM,39.2,17.6,42,29.77,10.0,NW,11.5,28.8,N/A,,Mostly Cloudy,320,2013-03-23 17:45:00
2:45 PM,41.0,17.6,39,29.75,10.0,NW,11.5,28.8,N/A,,Scattered Clouds,320,2013-03-23 18:45:00
4:45 PM,42.8,15.8,34,29.75,10.0,NNW,17.3,27.6,N/A,,Partly Cloudy,340,2013-03-23 20:45:00
5:45 PM,41.0,15.8,36,29.76,10.0,NW,13.8,23.0,N/A,,Partly Cloudy,320,2013-03-23 21:45:00
6:45 PM,39.2,15.8,39,29.79,10.0,NW,13.8,24.2,N/A,,Partly Cloudy,310,2013-03-23 22:45:00
7:45 PM,37.4,15.8,41,29.81,10.0,WNW,11.5,17.3,N/A,,Mostly Cloudy,300,2013-03-23 23:45:00
8:55 PM,35.6,15.8,44,29.84,10.0,NNW,11.5,-,N/A,,Overcast,330,2013-03-24 00:55:00
9:15 PM,35.6,15.8,44,29.86,10.0,NNW,8.1,-,N/A,,Overcast,330,2013-03-24 01:15:00
9:35 PM,35.6,15.8,44,29.86,10.0,NW,12.7,18.4,N/A,,Overcast,320,2013-03-24 01:35:00
9:55 PM,33.8,15.8,48,29.86,10.0,NNW,11.5,-,N/A,,Mostly Cloudy,330,2013-03-24 01:55:00
10:15 PM,33.8,15.8,48,29.87,10.0,NNW,8.1,17.3,N/A,,Overcast,330,2013-03-24 02:15:00
10:55 PM,33.8,15.8,48,29.87,10.0,NNW,13.8,19.6,N/A,,Mostly Cloudy,340,2013-03-24 02:55:00
11:15 PM,33.8,15.8,48,29.87,10.0,NW,6.9,-,N/A,,Partly Cloudy,320,2013-03-24 03:15:00
11:35 PM,33.8,15.8,48,29.87,10.0,NW,5.8,-,N/A,,Clear,310,2013-03-24 03:35:00
11:55 PM,33.8,15.8,48,29.87,10.0,NW,5.8,-,N/A,,Scattered Clouds,310,2013-03-24 03:55:00